Location: Invercargill
(46.4000°S, 168.3500°E)
Time: 18:39:51
(UTC+13:00)

Cosmos 2322 - Pass Details

Date: 08 October 2021
Orbit: 840 x 855 km, 71.0° (Epoch: 17 October)

Event Time Altitude Azimuth Distance (km) Brightness Sun altitude
Rises 22:55:34 0° 214° (SSW) 3,437 8.1 -26.9°
Reaches altitude 10° 22:58:11 10° 221° (SW) 2,497 7.1 -27.2°
Maximum altitude 23:03:21 36° 286° (WNW) 1,330 4.9 -27.8°
Enters shadow 23:04:47 31° 316° (NW) 1,451 4.8 -28.0°
